Time[GMT],significant_wave_height[m](0m),dominant_wave_period[s](0m),max_wave_height[m](0m),mean_wave_direction[degrees](0m),mean_wave_direction_spread[degrees](0m)
2019-08-26 20:00, 0.85,5.9,1.19,123.50,30.00
2019-08-26 21:00, 0.91,5.7,1.66,123.50,30.00
2019-08-26 22:00, 0.88,5.3,1.44,124.50,31.00
2019-08-26 23:00, 0.91,5.9,1.32,118.50,28.00
2019-08-27 00:00, 0.87,6.1,1.41,121.50,28.00
2019-08-27 01:00, 0.85,5.9,1.56,121.50,29.00
2019-08-27 02:00, 0.83,5.7,1.46,121.50,29.00
2019-08-27 03:00, 0.82,5.9,1.35,119.50,29.00
2019-08-27 04:00, 0.80,5.9,1.31,122.50,31.00
2019-08-27 05:00, 0.79,5.6,1.13,127.50,29.00
2019-08-27 06:00, 0.72,5.9,1.45,130.50,28.00
2019-08-27 07:00, 0.70,4.9,1.19,131.50,27.00
2019-08-27 08:00, 0.75,5.7,1.14,129.50,24.00
2019-08-27 09:00, 0.76,5.9,1.32,131.50,24.00
2019-08-27 10:00, 0.71,5.7,1.08,130.50,25.00
2019-08-27 11:00, 0.65,5.4,0.95,131.50,27.00
2019-08-27 12:00, 0.71,5.7,1.17,131.50,24.00
2019-08-27 13:00, 0.69,5.9,1.03,128.50,26.00
2019-08-27 14:00, 0.71,5.9,1.20,129.50,25.00
2019-08-27 15:00, 0.76,6.3,1.24,127.50,23.00
2019-08-27 16:00, 0.82,6.3,1.38,127.50,24.00
2019-08-27 17:00, 1.00,5.4,1.63,123.50,22.00
2019-08-27 18:00, 1.10,5.7,2.09,112.50,26.00
2019-08-27 19:00, 1.15,3.9,2.08,108.50,27.00
2019-08-27 20:00, 1.10,3.9,1.91,112.50,28.00
2019-08-27 21:00, 1.11,4.4,1.74,114.50,26.00
2019-08-27 22:00, 1.12,4.0,1.89,115.50,26.00
2019-08-27 23:00, 1.05,6.3,1.92,121.50,23.00
2019-08-28 00:00, 0.88,4.7,1.57,122.50,27.00
2019-08-28 01:00, 0.86,6.7,1.34,122.50,24.00
2019-08-28 02:00, 0.75,6.7,1.34,121.50,26.00
2019-08-28 03:00, 0.76,6.9,1.12,121.50,24.00
2019-08-28 04:00, 0.81,6.1,1.13,119.50,25.00
2019-08-28 05:00, 0.84,5.9,1.24,118.50,23.00
2019-08-28 06:00, 0.81,6.1,1.20,118.50,25.00
2019-08-28 07:00, 0.80,9.1,1.23,116.50,22.00
2019-08-28 08:00, 0.77,8.0,1.24,118.50,22.00
2019-08-28 09:00, 0.77,8.7,1.18,119.50,21.00
2019-08-28 10:00, 0.83,8.3,1.31,119.50,21.00
2019-08-28 11:00, 0.83,8.0,1.35,119.50,19.00
2019-08-28 12:00, 0.94,7.7,1.57,118.50,19.00
2019-08-28 13:00, 0.93,8.0,1.62,118.50,19.00
2019-08-28 14:00, 0.93,7.7,1.47,121.50,19.00
2019-08-28 15:00, 0.92,8.0,1.62,118.50,20.00
2019-08-28 16:00, 0.97,7.7,1.34,118.50,19.00
2019-08-28 17:00, 1.14,8.0,1.79,118.50,19.00
2019-08-28 18:00, 1.09,7.7,2.13,117.50,21.00
2019-08-28 19:00, 1.11,8.0,2.04,117.50,21.00
2019-08-28 20:00, 1.00,8.3,1.68,120.50,21.00
2019-08-28 21:00, 0.89,8.0,1.55,129.50,32.00
2019-08-28 22:00, 0.93,8.7,1.98,127.50,30.00
2019-08-28 23:00, 0.86,6.7,1.41,133.50,29.00
2019-08-29 00:00, 0.81,6.9,1.24,133.50,28.00
2019-08-29 01:00, 0.77,6.9,1.15,136.50,28.00
2019-08-29 02:00, 0.67,8.3,1.20,135.50,29.00
2019-08-29 03:00, 0.62,7.4,1.06,137.50,30.00
2019-08-29 04:00, 0.59,7.1,1.17,143.50,32.00
2019-08-29 05:00, 0.61,7.4,0.96,142.50,33.00
2019-08-29 06:00, 0.66,6.7,1.08,133.50,32.00
2019-08-29 07:00, 0.73,7.1,1.10,126.50,30.00
2019-08-29 08:00, 0.73,7.4,1.18,133.50,31.00
2019-08-29 09:00, 0.71,7.1,1.14,128.50,30.00
2019-08-29 10:00, 0.73,7.7,1.25,129.50,25.00
2019-08-29 11:00, 0.75,7.1,1.06,125.50,25.00
2019-08-29 12:00, 0.71,7.4,1.30,126.50,24.00
2019-08-29 13:00, 0.83,7.1,1.37,124.50,22.00
2019-08-29 14:00, 0.77,6.5,1.23,126.50,26.00
2019-08-29 15:00, 0.93,6.3,1.43,126.50,24.00
2019-08-29 16:00, 1.17,6.9,2.18,123.50,25.00
2019-08-29 17:00, 1.14,5.7,2.29,117.50,29.00
2019-08-29 18:00, 1.10,6.3,1.92,119.50,30.00
2019-08-29 19:00, 1.04,4.7,1.85,124.50,29.00
2019-08-29 20:00, 1.19,5.1,2.04,122.50,26.00
2019-08-29 21:00, 1.06,6.3,1.68,126.50,25.00
2019-08-29 22:00, 0.92,5.9,1.49,130.50,28.00
2019-08-29 23:00, 0.91,6.5,1.46,132.50,28.00
2019-08-30 00:00, 1.03,6.5,1.70,132.50,26.00
2019-08-30 01:00, 0.99,6.7,1.49,135.50,27.00
2019-08-30 02:00, 1.05,6.7,2.30,135.50,25.00
2019-08-30 03:00, 1.07,6.5,1.58,139.50,25.00
2019-08-30 04:00, 1.03,6.3,1.72,138.50,28.00
2019-08-30 05:00, 1.16,6.9,1.96,140.50,23.00
2019-08-30 06:00, 1.08,6.5,1.87,137.50,27.00
2019-08-30 07:00, 1.18,6.5,1.77,133.50,24.00
2019-08-30 08:00, 1.11,6.7,2.01,135.50,29.00
2019-08-30 09:00, 1.06,6.3,1.58,137.50,27.00
2019-08-30 10:00, 0.97,6.7,1.66,140.50,27.00
2019-08-30 11:00, 0.86,6.3,1.30,139.50,29.00
2019-08-30 12:00, 0.89,6.3,1.42,140.50,27.00
2019-08-30 13:00, 0.83,6.3,1.23,140.50,30.00
2019-08-30 14:00, 0.86,6.5,1.36,139.50,31.00
2019-08-30 15:00, 0.96,6.3,1.42,139.50,27.00
2019-08-30 16:00, 0.93,5.9,1.43,138.50,33.00
2019-08-30 17:00, 0.99,6.3,1.67,139.50,31.00
2019-08-30 18:00, 1.05,5.9,1.55,128.50,33.00
2019-08-30 19:00, 1.12,5.9,1.90,124.50,32.00
2019-08-30 20:00, 1.05,5.7,1.70,133.50,36.00
2019-08-30 21:00, 0.99,5.9,1.73,133.50,33.00
2019-08-30 22:00, 1.00,5.9,1.77,137.50,30.00
2019-08-30 23:00, 0.90,5.6,1.36,141.50,30.00
2019-08-31 00:00, 0.85,5.7,1.50,144.50,31.00
2019-08-31 01:00, 0.80,5.4,1.29,141.50,31.00
2019-08-31 02:00, 0.76,5.7,1.24,141.50,31.00
2019-08-31 03:00, 0.74,5.6,1.20,140.50,31.00
2019-08-31 04:00, 0.72,5.4,1.26,142.50,36.00
2019-08-31 05:00, 0.72,5.7,1.30,136.50,32.00
2019-08-31 06:00, 0.75,5.4,1.29,130.50,30.00
2019-08-31 07:00, 0.67,5.7,1.44,127.50,31.00
2019-08-31 08:00, 0.81,5.6,1.40,130.50,30.00
2019-08-31 09:00, 0.75,5.0,1.30,130.50,30.00
2019-08-31 10:00, 0.66,5.4,1.17,133.50,30.00
2019-08-31 11:00, 0.68,5.6,1.09,136.50,31.00
2019-08-31 12:00, 0.64,5.3,1.06,136.50,32.00
2019-08-31 13:00, 0.63,5.3,1.04,134.50,32.00
2019-08-31 14:00, 0.67,5.0,1.22,136.50,31.00
2019-08-31 15:00, 0.63,5.0,1.16,140.50,35.00
2019-08-31 16:00, 0.62,5.4,1.18,136.50,34.00
2019-08-31 17:00, 0.58,5.0,1.13,140.50,36.00
2019-08-31 18:00, 0.61,5.1,1.10,139.50,33.00
2019-08-31 19:00, 0.66,5.3,1.15,141.50,31.00
2019-08-31 20:00, 0.73,5.4,1.15,133.50,30.00
2019-08-31 21:00, 0.72,5.1,1.27,133.50,32.00
2019-08-31 22:00, 0.67,5.0,1.05,134.50,33.00
2019-08-31 23:00, 0.63,5.0,1.10,141.50,32.00
2019-09-01 00:00, 0.67,4.9,1.15,143.50,30.00
2019-09-01 01:00, 0.59,5.4,1.23,139.50,34.00
2019-09-01 02:00, 0.63,5.4,1.15,140.50,31.00
2019-09-01 03:00, 0.58,5.1,0.83,135.50,31.00
2019-09-01 04:00, 0.56,5.6,0.89,134.50,31.00
2019-09-01 05:00, 0.55,5.4,0.95,134.50,30.00
2019-09-01 06:00, 0.54,5.6,0.87,132.50,31.00
2019-09-01 07:00, 0.60,5.4,1.08,132.50,27.00
2019-09-01 08:00, 0.67,5.0,1.18,127.50,28.00
2019-09-01 09:00, 0.74,5.1,1.23,122.50,28.00
2019-09-01 10:00, 0.62,5.0,1.03,123.50,32.00
2019-09-01 11:00, 0.61,4.7,0.87,127.50,28.00
2019-09-01 12:00, 0.61,5.1,1.00,130.50,30.00
2019-09-01 13:00, 0.56,5.0,0.96,131.50,30.00
2019-09-01 14:00, 0.54,5.3,0.88,131.50,30.00
2019-09-01 15:00, 0.54,5.3,0.83,133.50,31.00
2019-09-01 16:00, 0.62,5.1,0.96,133.50,30.00
2019-09-01 17:00, 0.60,5.3,0.90,136.50,30.00
2019-09-01 18:00, 0.56,5.1,0.86,132.50,33.00
2019-09-01 19:00, 0.56,5.1,0.98,134.50,31.00
2019-09-01 20:00, 0.60,5.1,0.85,133.50,29.00
2019-09-01 21:00, 0.63,5.1,1.07,131.50,27.00
2019-09-01 22:00, 0.61,4.5,1.06,125.50,29.00
2019-09-01 23:00,,,,,
2019-09-02 00:00, 0.55,5.3,1.04,132.50,31.00
2019-09-02 01:00, 0.52,4.5,0.81,136.50,32.00
2019-09-02 02:00, 0.53,4.7,0.97,132.50,32.00
2019-09-02 03:00, 0.52,5.3,0.96,133.50,34.00
2019-09-02 04:00, 0.49,5.0,0.72,133.50,31.00
2019-09-02 05:00, 0.45,5.1,0.73,136.50,33.00
2019-09-02 06:00, 0.46,5.1,0.80,138.50,33.00
2019-09-02 07:00, 0.45,5.1,0.73,131.50,32.00
2019-09-02 08:00, 0.53,4.5,0.93,127.50,30.00
2019-09-02 09:00, 0.59,4.3,1.06,130.50,29.00
2019-09-02 10:00, 0.62,4.8,1.07,122.50,32.00
2019-09-02 11:00, 0.65,4.8,1.35,119.50,28.00
2019-09-02 12:00, 0.57,4.8,0.98,129.50,31.00
2019-09-02 13:00, 0.55,4.5,0.98,132.50,31.00
2019-09-02 14:00, 0.53,4.7,1.06,138.50,30.00
2019-09-02 15:00, 0.53,4.7,0.89,141.50,30.00
2019-09-02 16:00, 0.59,5.0,1.05,140.50,29.00
2019-09-02 17:00, 0.62,4.9,0.92,139.50,31.00
2019-09-02 18:00, 0.58,4.1,0.99,138.50,33.00
2019-09-02 19:00, 0.53,5.0,0.94,143.50,34.00
2019-09-02 20:00, 0.55,5.0,1.03,147.50,32.00
2019-09-02 21:00, 0.58,4.8,1.00,145.50,29.00
2019-09-02 22:00, 0.67,4.9,1.01,142.50,27.00
2019-09-02 23:00, 0.68,4.9,1.16,138.50,30.00
2019-09-03 00:00, 0.77,4.7,1.13,131.50,31.00
2019-09-03 01:00, 0.68,4.8,1.16,136.50,31.00
2019-09-03 02:00, 0.58,4.3,0.90,133.50,31.00
2019-09-03 03:00, 0.59,5.0,1.01,138.50,31.00
2019-09-03 04:00, 0.57,5.3,0.87,136.50,32.00
2019-09-03 05:00, 0.58,4.9,1.01,138.50,31.00
2019-09-03 06:00, 0.61,4.0,1.19,138.50,31.00
2019-09-03 07:00, 0.61,4.9,1.06,139.50,30.00
2019-09-03 08:00, 0.65,5.0,1.40,139.50,31.00
2019-09-03 09:00, 0.70,4.5,1.14,136.50,29.00
2019-09-03 10:00, 0.71,5.0,1.07,140.50,28.00
2019-09-03 11:00, 0.65,4.9,1.03,139.50,32.00
2019-09-03 12:00, 0.69,5.6,1.17,140.50,29.00
2019-09-03 13:00, 0.74,5.0,1.19,141.50,29.00
2019-09-03 14:00, 0.71,5.3,1.28,138.50,30.00
2019-09-03 15:00, 0.77,5.3,1.64,133.50,30.00
2019-09-03 16:00, 0.75,5.3,1.21,132.50,30.00
2019-09-03 17:00, 0.87,5.6,1.33,133.50,27.00
2019-09-03 18:00, 0.88,5.6,1.45,128.50,29.00
2019-09-03 19:00, 0.88,5.4,1.42,130.50,29.00
2019-09-03 20:00, 0.90,5.7,1.43,128.50,29.00
2019-09-03 21:00, 0.90,5.4,1.68,125.50,30.00
2019-09-03 22:00, 0.99,4.9,1.66,127.50,30.00
2019-09-03 23:00, 1.04,5.4,1.72,125.50,30.00
2019-09-04 00:00, 1.01,5.3,2.27,124.50,30.00
2019-09-04 01:00, 1.24,5.4,1.98,131.50,26.00
2019-09-04 02:00, 0.97,5.7,1.54,128.50,31.00
2019-09-04 03:00, 0.94,5.3,1.81,132.50,30.00
2019-09-04 04:00, 1.03,5.7,1.59,132.50,29.00
2019-09-04 05:00, 1.07,5.7,1.73,130.50,29.00
2019-09-04 06:00, 1.13,5.6,2.13,127.50,31.00
2019-09-04 07:00, 1.13,5.7,1.78,125.50,28.00
2019-09-04 08:00, 1.16,6.3,2.15,124.50,27.00
2019-09-04 09:00, 1.27,6.3,2.10,121.50,26.00
2019-09-04 10:00, 1.29,6.3,2.11,123.50,24.00
2019-09-04 11:00, 1.48,6.5,2.42,127.50,22.00
2019-09-04 12:00, 1.26,6.3,1.92,124.50,26.00
2019-09-04 13:00, 1.20,6.5,2.12,121.50,27.00
2019-09-04 14:00, 1.21,5.9,2.14,122.50,24.00
2019-09-04 15:00, 1.06,5.9,1.76,127.50,29.00
2019-09-04 16:00, 1.15,6.5,1.84,133.50,26.00
2019-09-04 17:00, 1.04,6.7,1.86,130.50,29.00
2019-09-04 18:00, 0.97,6.7,1.48,132.50,28.00
2019-09-04 19:00, 0.97,6.3,1.72,130.50,28.00
2019-09-04 20:00, 0.92,6.9,1.87,129.50,29.00
2019-09-04 21:00, 1.01,6.5,2.08,127.50,26.00
2019-09-04 22:00, 1.04,6.9,1.78,128.50,26.00
2019-09-04 23:00, 1.12,5.9,1.74,124.50,27.00
2019-09-05 00:00, 1.05,6.9,2.04,120.50,28.00
2019-09-05 01:00, 1.02,6.3,1.59,120.50,28.00
2019-09-05 02:00, 0.95,5.9,1.63,124.50,28.00
2019-09-05 03:00, 0.87,6.9,1.53,126.50,28.00
2019-09-05 04:00, 0.80,6.7,1.40,129.50,27.00
2019-09-05 05:00, 0.82,6.1,1.19,130.50,24.00
2019-09-05 06:00, 0.75,6.9,1.13,129.50,25.00
2019-09-05 07:00, 0.79,6.7,1.35,127.50,23.00
2019-09-05 08:00, 0.77,6.5,1.18,125.50,24.00
2019-09-05 09:00, 0.77,5.7,1.24,123.50,25.00
2019-09-05 10:00, 0.89,6.1,1.41,121.50,22.00
2019-09-05 11:00, 0.86,5.6,1.56,122.50,25.00
2019-09-05 12:00, 1.10,6.1,1.96,117.50,24.00
2019-09-05 13:00, 0.90,6.5,1.41,118.50,23.00
2019-09-05 14:00, 0.83,5.6,1.41,119.50,25.00
2019-09-05 15:00, 0.80,5.9,1.51,122.50,26.00
2019-09-05 16:00, 0.75,5.6,1.25,123.50,27.00
2019-09-05 17:00, 0.81,5.7,1.36,118.50,27.00
2019-09-05 18:00, 0.90,5.7,1.37,113.50,24.00
2019-09-05 19:00, 0.83,5.9,1.36,118.50,25.00
2019-09-05 20:00, 0.83,5.7,1.33,119.50,27.00
2019-09-05 21:00, 0.84,6.3,1.45,115.50,30.00
2019-09-05 22:00, 0.88,5.7,1.85,120.50,28.00
2019-09-05 23:00, 0.91,5.7,1.50,117.50,28.00
2019-09-06 00:00, 0.81,5.6,1.29,123.50,26.00
2019-09-06 01:00, 0.86,5.9,1.47,126.50,24.00
2019-09-06 02:00, 0.68,5.6,1.09,123.50,27.00
2019-09-06 03:00, 0.68,5.9,1.27,126.50,30.00
2019-09-06 04:00, 0.62,5.7,1.37,130.50,30.00
2019-09-06 05:00, 0.60,5.4,1.02,127.50,30.00
2019-09-06 06:00, 0.60,5.7,0.93,130.50,29.00
2019-09-06 07:00, 0.53,5.9,0.87,136.50,31.00
2019-09-06 08:00, 0.57,5.9,1.06,137.50,27.00
2019-09-06 09:00, 0.57,5.7,0.96,133.50,29.00
2019-09-06 10:00, 0.52,5.9,0.86,137.50,29.00
2019-09-06 11:00, 0.53,5.1,0.81,133.50,29.00
2019-09-06 12:00, 0.51,5.3,0.86,132.50,28.00
2019-09-06 13:00, 0.56,5.6,1.07,128.50,28.00
2019-09-06 14:00, 0.57,4.7,0.91,119.50,28.00
2019-09-06 15:00, 0.51,5.0,0.87,119.50,28.00
2019-09-06 16:00, 0.46,4.9,0.74,120.50,31.00
2019-09-06 17:00, 0.44,5.9,0.70,122.50,35.00
2019-09-06 18:00, 0.45,3.9,0.83,122.50,32.00
2019-09-06 19:00, 0.43,5.1,0.73,129.50,34.00
2019-09-06 20:00, 0.39,5.6,0.59,127.50,37.00
2019-09-06 21:00, 0.45,5.9,0.75,120.50,37.00
2019-09-06 22:00, 0.41,5.1,0.63,122.50,36.00
2019-09-06 23:00, 0.36,5.6,0.62,124.50,36.00
2019-09-07 00:00, 0.39,7.4,0.70,131.50,35.00
2019-09-07 01:00, 0.40,4.8,0.63,124.50,31.00
2019-09-07 02:00, 0.41,5.3,0.68,119.50,29.00
2019-09-07 03:00, 0.37,5.7,0.60,121.50,33.00
2019-09-07 04:00, 0.36,5.0,0.56,131.50,33.00
2019-09-07 05:00, 0.35,5.1,0.60,136.50,34.00
2019-09-07 06:00, 0.37,5.0,0.60,135.50,31.00
2019-09-07 07:00, 0.41,4.5,0.60,130.50,30.00
2019-09-07 08:00, 0.39,5.1,0.63,128.50,32.00
2019-09-07 09:00, 0.41,5.4,0.67,128.50,32.00
2019-09-07 10:00, 0.41,3.6,0.65,131.50,35.00
2019-09-07 11:00, 0.37,5.1,0.58,133.50,38.00
2019-09-07 12:00, 0.39,3.4,0.66,125.50,36.00
2019-09-07 13:00, 0.40,4.7,0.58,126.50,34.00
2019-09-07 14:00, 0.35,4.9,0.52,132.50,36.00
2019-09-07 15:00, 0.34,5.0,0.65,140.50,34.00
2019-09-07 16:00, 0.33,4.4,0.65,143.50,36.00
2019-09-07 17:00, 0.31,4.2,0.58,145.50,40.00
2019-09-07 18:00, 0.34,4.4,0.61,147.50,39.00
2019-09-07 19:00, 0.35,4.2,0.57,143.50,36.00
2019-09-07 20:00, 0.35,3.3,0.58,143.50,34.00
2019-09-07 21:00, 0.33,3.6,0.60,148.50,37.00
2019-09-07 22:00, 0.34,3.5,0.63,141.50,44.00
2019-09-07 23:00, 0.33,8.0,0.62,141.50,43.00
2019-09-08 00:00, 0.30,3.6,0.49,141.50,42.00
2019-09-08 01:00, 0.31,4.7,0.49,133.50,41.00
2019-09-08 02:00, 0.33,3.4,0.55,137.50,35.00
2019-09-08 03:00, 0.34,4.5,0.51,127.50,34.00
2019-09-08 04:00, 0.35,4.3,0.52,135.50,33.00
2019-09-08 05:00, 0.31,3.5,0.58,135.50,37.00
2019-09-08 06:00, 0.31,4.1,0.58,138.50,34.00
2019-09-08 07:00, 0.31,4.1,0.54,139.50,31.00
2019-09-08 08:00, 0.34,3.8,0.48,137.50,29.00
2019-09-08 09:00, 0.35,3.6,0.56,128.50,34.00
2019-09-08 10:00, 0.37,4.0,0.66,125.50,34.00
2019-09-08 11:00, 0.32,3.8,0.49,131.50,36.00
2019-09-08 12:00, 0.30,4.7,0.55,136.50,38.00
2019-09-08 13:00, 0.29,3.6,0.47,146.50,39.00
2019-09-08 14:00, 0.26,8.3,0.44,145.50,39.00
2019-09-08 15:00, 0.26,4.3,0.40,151.50,40.00
2019-09-08 16:00, 0.26,4.3,0.43,158.50,37.00
2019-09-08 17:00, 0.25,3.9,0.45,164.50,36.00
2019-09-08 18:00, 0.28,4.7,0.49,155.50,37.00
2019-09-08 19:00, 0.28,4.7,0.46,147.50,37.00
2019-09-08 20:00, 0.30,4.4,0.52,152.50,33.00
2019-09-08 21:00, 0.29,4.3,0.48,160.50,34.00
2019-09-08 22:00, 0.33,4.3,0.50,160.50,33.00
2019-09-08 23:00, 0.35,4.4,0.65,167.50,34.00
2019-09-09 00:00, 0.38,4.7,0.62,167.50,31.00
2019-09-09 01:00, 0.37,5.3,0.66,169.50,32.00
2019-09-09 02:00, 0.36,5.3,0.63,159.50,35.00
2019-09-09 03:00, 0.30,5.3,0.46,161.50,36.00
2019-09-09 04:00, 0.34,5.0,0.58,168.50,31.00
2019-09-09 05:00, 0.32,4.7,0.53,165.50,32.00
2019-09-09 06:00, 0.35,5.3,0.54,159.50,29.00
2019-09-09 07:00, 0.32,5.0,0.51,155.50,32.00
2019-09-09 08:00, 0.36,10.0,0.54,150.50,32.00
2019-09-09 09:00, 0.37,10.0,0.60,144.50,28.00
2019-09-09 10:00, 0.35,8.7,0.64,141.50,30.00
2019-09-09 11:00, 0.35,4.7,0.56,148.50,36.00
2019-09-09 12:00, 0.37,4.7,0.69,146.50,33.00
2019-09-09 13:00, 0.38,4.2,0.71,150.50,32.00
2019-09-09 14:00, 0.40,4.8,0.58,146.50,30.00
2019-09-09 15:00, 0.39,4.8,0.63,145.50,28.00
2019-09-09 16:00, 0.39,4.8,0.66,145.50,28.00
2019-09-09 17:00, 0.40,4.5,0.85,144.50,28.00
2019-09-09 18:00, 0.40,4.5,0.66,150.50,30.00
2019-09-09 19:00, 0.41,5.3,0.67,149.50,33.00
2019-09-09 20:00, 0.44,4.5,0.85,146.50,33.00
2019-09-09 21:00, 0.41,4.8,0.78,149.50,33.00
2019-09-09 22:00, 0.41,5.0,0.67,148.50,32.00
2019-09-09 23:00, 0.43,4.8,0.64,150.50,32.00
2019-09-10 00:00, 0.44,4.2,0.61,146.50,33.00
2019-09-10 01:00, 0.43,4.9,0.88,152.50,33.00
2019-09-10 02:00, 0.42,4.5,0.73,151.50,36.00
2019-09-10 03:00, 0.43,5.0,0.79,156.50,32.00
2019-09-10 04:00, 0.42,5.1,0.65,152.50,33.00
2019-09-10 05:00, 0.39,4.7,0.68,149.50,34.00
2019-09-10 06:00, 0.36,4.7,0.69,156.50,35.00
2019-09-10 07:00, 0.38,4.8,0.59,151.50,33.00
2019-09-10 08:00, 0.39,4.7,0.66,142.50,33.00
2019-09-10 09:00, 0.47,5.1,0.75,136.50,30.00
2019-09-10 10:00, 0.46,4.9,0.74,146.50,28.00
2019-09-10 11:00, 0.51,4.8,0.90,148.50,29.00
2019-09-10 12:00, 0.48,4.9,0.82,145.50,34.00
2019-09-10 13:00, 0.52,4.7,0.94,145.50,33.00
2019-09-10 14:00, 0.46,4.3,0.82,146.50,34.00
2019-09-10 15:00, 0.45,5.1,0.82,142.50,34.00
2019-09-10 16:00, 0.42,4.7,0.76,148.50,34.00
2019-09-10 17:00, 0.47,4.8,0.76,148.50,31.00
2019-09-10 18:00, 0.44,4.9,0.72,144.50,33.00
2019-09-10 19:00, 0.48,5.3,0.80,145.50,32.00
2019-09-10 20:00, 0.52,5.3,0.96,143.50,29.00
2019-09-10 21:00, 0.51,4.9,0.82,136.50,29.00
2019-09-10 22:00, 0.58,5.1,0.91,136.50,28.00
2019-09-10 23:00, 0.60,5.1,0.97,137.50,29.00
2019-09-11 00:00, 0.64,4.8,1.13,135.50,30.00
2019-09-11 01:00, 0.65,4.4,1.39,130.50,32.00
2019-09-11 02:00, 0.61,4.9,1.01,133.50,32.00
2019-09-11 03:00, 0.57,4.7,0.89,138.50,34.00
2019-09-11 04:00, 0.55,5.1,0.87,139.50,32.00
2019-09-11 05:00, 0.55,5.0,1.07,141.50,32.00
2019-09-11 06:00, 0.56,4.9,0.94,143.50,30.00
2019-09-11 07:00, 0.56,4.9,1.04,143.50,30.00
2019-09-11 08:00, 0.61,4.9,1.04,138.50,27.00
2019-09-11 09:00, 0.58,4.1,1.03,136.50,29.00
2019-09-11 10:00, 0.58,4.8,1.10,133.50,28.00
2019-09-11 11:00, 0.67,4.7,1.25,131.50,27.00
2019-09-11 12:00, 0.64,4.9,1.20,129.50,29.00
2019-09-11 13:00, 0.66,3.9,1.03,123.50,30.00
2019-09-11 14:00, 0.62,4.8,0.99,123.50,33.00
2019-09-11 15:00, 0.59,5.0,0.94,127.50,33.00
2019-09-11 16:00, 0.54,4.8,0.89,128.50,34.00
2019-09-11 17:00, 0.58,4.8,0.98,128.50,32.00
2019-09-11 18:00, 0.60,4.5,0.91,129.50,32.00
2019-09-11 19:00, 0.59,4.7,1.15,129.50,31.00
2019-09-11 20:00, 0.58,4.9,1.02,132.50,32.00
2019-09-11 21:00, 0.54,4.9,0.85,135.50,33.00
2019-09-11 22:00, 0.59,4.7,0.95,135.50,28.00
2019-09-11 23:00, 0.55,5.1,0.88,134.50,30.00
2019-09-12 00:00, 0.55,4.9,0.83,134.50,29.00
2019-09-12 01:00, 0.56,4.8,0.79,130.50,30.00
2019-09-12 02:00, 0.57,5.7,0.82,130.50,31.00
2019-09-12 03:00, 0.56,7.1,0.88,129.50,29.00
2019-09-12 04:00, 0.55,5.6,0.77,134.50,28.00
2019-09-12 05:00, 0.50,6.1,0.81,132.50,31.00
2019-09-12 06:00, 0.55,5.7,0.92,134.50,27.00
2019-09-12 07:00, 0.50,5.3,1.10,134.50,29.00
2019-09-12 08:00, 0.55,5.1,0.88,133.50,27.00
2019-09-12 09:00, 0.54,4.7,0.89,132.50,29.00
2019-09-12 10:00, 0.52,5.1,0.82,133.50,29.00
2019-09-12 11:00, 0.56,5.3,0.92,134.50,27.00
2019-09-12 12:00, 0.55,5.0,0.90,133.50,29.00
2019-09-12 13:00, 0.51,4.7,0.72,129.50,31.00
2019-09-12 14:00, 0.56,5.3,0.90,133.50,27.00
2019-09-12 15:00, 0.53,5.3,0.78,130.50,28.00
2019-09-12 16:00, 0.48,5.6,0.78,135.50,30.00
2019-09-12 17:00, 0.50,5.0,0.85,138.50,28.00
2019-09-12 18:00, 0.49,5.4,0.91,136.50,30.00
2019-09-12 19:00, 0.55,4.8,1.06,137.50,31.00
2019-09-12 20:00, 0.57,5.0,0.84,136.50,30.00
2019-09-12 21:00, 0.53,4.7,0.87,136.50,31.00
2019-09-12 22:00, 0.53,4.9,0.96,137.50,33.00
2019-09-12 23:00, 0.59,4.4,0.88,135.50,33.00
2019-09-13 00:00, 0.55,4.5,0.91,131.50,36.00
2019-09-13 01:00, 0.60,5.6,1.05,131.50,33.00
2019-09-13 02:00, 0.60,5.3,0.96,127.50,33.00
2019-09-13 03:00, 0.61,5.3,0.90,131.50,31.00
2019-09-13 04:00, 0.52,5.1,0.76,133.50,32.00
2019-09-13 05:00, 0.60,3.3,1.04,133.50,30.00
2019-09-13 06:00, 0.54,3.6,0.87,134.50,33.00
2019-09-13 07:00, 0.58,4.7,1.10,136.50,30.00
2019-09-13 08:00, 0.59,4.5,0.91,133.50,28.00
2019-09-13 09:00, 0.51,4.5,0.99,137.50,32.00
2019-09-13 10:00, 0.54,4.7,1.01,137.50,31.00
2019-09-13 11:00, 0.52,4.9,0.79,136.50,34.00
2019-09-13 12:00, 0.59,4.7,1.09,141.50,31.00
2019-09-13 13:00, 0.55,4.3,0.88,142.50,30.00
2019-09-13 14:00, 0.55,4.5,0.94,141.50,30.00
2019-09-13 15:00, 0.59,4.7,1.00,139.50,29.00
2019-09-13 16:00, 0.66,4.9,1.37,135.50,29.00
2019-09-13 17:00, 0.63,4.9,1.46,130.50,31.00
2019-09-13 18:00, 0.74,5.0,1.22,128.50,29.00
2019-09-13 19:00, 0.78,4.5,1.30,132.50,30.00
2019-09-13 20:00, 0.84,4.7,1.32,132.50,28.00
2019-09-13 21:00, 0.76,4.9,1.43,133.50,29.00
2019-09-13 22:00, 0.74,5.0,1.15,136.50,30.00
2019-09-13 23:00, 0.69,4.9,1.06,139.50,30.00
2019-09-14 00:00, 0.67,4.7,1.29,138.50,31.00
2019-09-14 01:00, 0.69,5.0,1.10,131.50,32.00
2019-09-14 02:00, 0.72,5.1,1.35,126.50,30.00
2019-09-14 03:00, 0.71,5.0,1.15,125.50,29.00
2019-09-14 04:00, 0.73,5.3,1.20,121.50,30.00
2019-09-14 05:00, 0.72,5.1,1.04,125.50,27.00
2019-09-14 06:00, 0.81,5.4,1.28,121.50,28.00
2019-09-14 07:00, 0.84,4.7,1.30,123.50,28.00
2019-09-14 08:00, 0.82,4.9,1.35,121.50,28.00
2019-09-14 09:00, 0.88,4.5,1.43,118.50,27.00
2019-09-14 10:00, 0.90,5.3,1.62,119.50,26.00
2019-09-14 11:00, 0.82,4.7,1.29,119.50,28.00
2019-09-14 12:00, 0.81,5.0,1.48,120.50,28.00
2019-09-14 13:00, 0.79,4.7,1.27,121.50,28.00
2019-09-14 14:00, 0.89,5.4,1.38,120.50,28.00
2019-09-14 15:00, 0.92,5.3,1.36,118.50,27.00
2019-09-14 16:00, 0.89,5.6,1.47,116.50,28.00
2019-09-14 17:00, 0.90,5.1,1.59,117.50,27.00
2019-09-14 18:00, 0.90,5.3,1.48,119.50,28.00
2019-09-14 19:00, 0.81,5.3,1.30,123.50,29.00
2019-09-14 20:00, 0.81,5.1,1.31,123.50,28.00
2019-09-14 21:00, 0.91,5.3,1.57,122.50,28.00
2019-09-14 22:00, 0.90,5.3,1.51,119.50,27.00
2019-09-14 23:00, 0.88,5.4,1.68,117.50,28.00
2019-09-15 00:00, 0.89,5.3,1.70,112.50,30.00
2019-09-15 01:00, 0.89,5.1,1.42,114.50,28.00
2019-09-15 02:00, 0.91,5.9,1.38,115.50,26.00
2019-09-15 03:00, 0.92,5.6,1.40,116.50,24.00
2019-09-15 04:00, 0.85,5.6,1.64,114.50,26.00
2019-09-15 05:00, 0.92,5.4,1.62,116.50,23.00
2019-09-15 06:00, 0.91,5.3,1.92,118.50,22.00
2019-09-15 07:00, 0.83,5.7,1.23,118.50,25.00
2019-09-15 08:00, 0.79,5.1,1.24,119.50,24.00
2019-09-15 09:00, 0.78,5.4,1.44,119.50,25.00
2019-09-15 10:00, 0.81,5.4,1.31,117.50,25.00
2019-09-15 11:00, 0.82,5.4,1.25,118.50,24.00
2019-09-15 12:00, 0.82,5.9,1.38,117.50,22.00
2019-09-15 13:00, 0.87,5.3,1.26,117.50,21.00
2019-09-15 14:00, 0.95,5.6,1.49,112.50,24.00
2019-09-15 15:00, 0.97,5.6,1.44,113.50,23.00
2019-09-15 16:00, 1.01,5.9,1.42,112.50,23.00
2019-09-15 17:00, 1.03,6.1,1.67,114.50,24.00
2019-09-15 18:00, 1.16,4.9,2.12,113.50,23.00
2019-09-15 19:00, 1.21,4.5,1.77,111.50,22.00
2019-09-15 20:00, 1.10,6.5,2.36,110.50,23.00
2019-09-15 21:00, 1.08,5.6,1.72,112.50,24.00
2019-09-15 22:00, 1.02,6.5,1.43,113.50,24.00
2019-09-15 23:00, 1.00,6.7,1.60,113.50,26.00
2019-09-16 00:00, 1.05,6.5,1.79,112.50,24.00
2019-09-16 01:00, 1.00,6.5,1.76,112.50,24.00
2019-09-16 02:00, 1.00,5.1,1.58,112.50,24.00
2019-09-16 03:00, 0.92,5.9,1.33,115.50,22.00
2019-09-16 04:00, 0.92,5.6,1.52,117.50,23.00
2019-09-16 05:00, 0.85,5.6,1.47,118.50,23.00
2019-09-16 06:00, 0.90,5.9,1.53,120.50,22.00
2019-09-16 07:00, 0.85,5.9,1.52,122.50,24.00
2019-09-16 08:00, 0.81,5.9,1.38,121.50,23.00
2019-09-16 09:00, 0.73,5.7,1.12,122.50,26.00
2019-09-16 10:00, 0.74,5.6,1.23,122.50,24.00
2019-09-16 11:00, 0.74,5.4,1.32,123.50,23.00
2019-09-16 12:00, 0.68,5.9,1.16,127.50,25.00
2019-09-16 13:00, 0.73,5.6,1.14,123.50,24.00
2019-09-16 14:00, 0.84,5.7,1.30,117.50,23.00
2019-09-16 15:00, 0.84,5.1,1.38,118.50,24.00
2019-09-16 16:00, 0.91,5.6,1.55,116.50,24.00
2019-09-16 17:00, 1.02,4.8,1.64,115.50,25.00
2019-09-16 18:00, 1.03,5.0,1.74,114.50,25.00
2019-09-16 19:00, 1.15,5.6,1.97,121.50,25.00
2019-09-16 20:00, 1.17,5.7,2.03,123.50,24.00
2019-09-16 21:00, 1.05,5.7,1.55,126.50,23.00
2019-09-16 22:00, 0.91,5.4,1.50,123.50,26.00
2019-09-16 23:00, 1.13,6.9,2.10,128.50,23.00
2019-09-17 00:00, 1.23,6.5,2.32,125.50,23.00
2019-09-17 01:00, 1.29,6.7,2.45,123.50,24.00
2019-09-17 02:00, 1.32,7.1,2.74,121.50,22.00
2019-09-17 03:00, 1.43,6.9,2.34,123.50,21.00
2019-09-17 04:00, 1.45,7.1,2.27,124.50,20.00
2019-09-17 05:00, 1.48,7.4,2.33,124.50,19.00
2019-09-17 06:00, 1.35,7.4,1.94,121.50,21.00
2019-09-17 07:00, 1.31,6.3,2.23,118.50,21.00
2019-09-17 08:00, 1.28,7.4,2.34,117.50,22.00
2019-09-17 09:00, 1.23,6.9,2.00,119.50,23.00